TimeMST,TemperatureF,Dew PointF,Humidity,Sea Level PressureIn,VisibilityMPH,Wind Direction,Wind SpeedMPH,Gust SpeedMPH,PrecipitationIn,Events,Conditions,WindDirDegrees,DateUTC
12:53 AM,5.0,-0.0,80,30.42,10.0,South,3.5,-,N/A,,Clear,180,2014-01-07 07:53:00
1:53 AM,3.9,-0.9,80,30.40,10.0,South,4.6,-,N/A,,Clear,180,2014-01-07 08:53:00
2:53 AM,3.9,-0.9,80,30.37,10.0,SSE,5.8,-,N/A,,Clear,160,2014-01-07 09:53:00
3:53 AM,3.0,-2.0,80,30.40,10.0,South,5.8,-,N/A,,Clear,190,2014-01-07 10:53:00
4:53 AM,3.9,-0.9,80,30.40,10.0,South,6.9,-,N/A,,Clear,180,2014-01-07 11:53:00
5:53 AM,5.0,1.0,84,30.38,10.0,SE,5.8,-,N/A,,Clear,140,2014-01-07 12:53:00
6:53 AM,5.0,1.0,84,30.37,10.0,SSE,5.8,-,N/A,,Clear,160,2014-01-07 13:53:00
7:53 AM,7.0,3.0,84,30.38,10.0,Calm,Calm,-,N/A,,Clear,0,2014-01-07 14:53:00
8:53 AM,14.0,7.0,74,30.34,10.0,Calm,Calm,-,N/A,,Clear,0,2014-01-07 15:53:00
9:53 AM,16.0,9.0,74,30.34,10.0,Calm,Calm,-,N/A,,Clear,0,2014-01-07 16:53:00
10:53 AM,23.0,10.9,60,30.27,10.0,Calm,Calm,-,N/A,,Partly Cloudy,0,2014-01-07 17:53:00
11:53 AM,30.0,12.9,49,30.16,10.0,North,5.8,-,N/A,,Scattered Clouds,10,2014-01-07 18:53:00
12:53 PM,26.1,12.9,58,30.15,10.0,North,8.1,-,N/A,,Mostly Cloudy,350,2014-01-07 19:53:00
1:53 PM,27.0,12.0,53,30.15,10.0,North,4.6,-,N/A,,Mostly Cloudy,360,2014-01-07 20:53:00
2:53 PM,27.0,12.0,53,30.16,10.0,North,4.6,-,N/A,,Overcast,360,2014-01-07 21:53:00
3:53 PM,27.0,12.9,56,30.18,10.0,NW,3.5,-,N/A,,Overcast,320,2014-01-07 22:53:00
4:53 PM,25.0,14.0,63,30.19,6.0,NW,5.8,-,N/A,,Haze,320,2014-01-07 23:53:00
5:53 PM,24.1,18.0,77,30.19,6.0,North,3.5,-,N/A,,Haze,10,2014-01-08 00:53:00
6:53 PM,21.9,18.0,85,30.19,6.0,NNW,5.8,-,0.00,,Overcast,340,2014-01-08 01:53:00
7:51 PM,21.2,19.4,93,30.06,7.0,Calm,Calm,-,0.00,Snow,Light Snow,0,2014-01-08 02:51:00
7:53 PM,21.9,19.9,92,30.17,8.0,Calm,Calm,-,0.00,Snow,Light Snow,0,2014-01-08 02:53:00
8:53 PM,21.0,19.0,92,30.15,7.0,North,5.8,-,0.00,Snow,Light Snow,360,2014-01-08 03:53:00
9:53 PM,19.9,19.0,96,30.15,6.0,Calm,Calm,-,0.00,Snow,Light Snow,0,2014-01-08 04:53:00
10:53 PM,19.9,19.0,96,30.09,5.0,Calm,Calm,-,0.00,Snow,Light Snow,0,2014-01-08 05:53:00
11:06 PM,19.0,18.0,96,30.05,2.5,Calm,Calm,-,0.00,Snow,Light Snow,0,2014-01-08 06:06:00
11:14 PM,19.0,17.1,92,30.05,3.0,Calm,Calm,-,0.00,Snow,Light Snow,0,2014-01-08 06:14:00
11:53 PM,19.9,19.0,96,30.06,4.0,Calm,Calm,-,0.00,Snow,Light Snow,0,2014-01-08 06:53:00